San Jose, Costa Rica

10:23 PM CST on September 19, 2017 (GMT -0600)
Juan Santamaria International

Weather History for MROC - October, 2012

Change the Weather History Date:

Tuesday, October 2, 2012

  Actual Average Record
Temperature  
Mean Temperature 75 °F -  
Max Temperature 86 °F 78 °F 87 °F (2016)
Min Temperature 64 °F 64 °F 61 °F (2016)
Cooling Degree Days 10    
Growing Degree Days 25 (Base 50)    
Moisture  
Dew Point 65 °F    
Average Humidity 77    
Maximum Humidity 94    
Minimum Humidity 38    
Precipitation  
Precipitation 0.02 in 0.42 in - ()
Sea Level Pressure  
Sea Level Pressure 29.96 in    
Wind  
Wind Speed 5 mph ()    
Max Wind Speed 14 mph    
Max Gust Speed -    
Visibility 6.8 miles    
Events Fog , Rain , Thunderstorm    
Averages and records for this station are not official NWS values.
T = Trace of Precipitation, MM = Missing Value Source: Averaged Metar Reports

Daily Weather History Graph

Daily Weather History Graph

Search for Another Location

Airport or City:

Trip Planner

Search our weather history database for the weather conditions in past years. The results will help you decide how hot, cold, wet, or windy it might be!

Date:

Astronomy

Oct. 02, 2012 Rise Set
Actual Time 5:25 AM CST 5:26 PM CST
Civil Twilight 5:04 AM CST 5:47 PM CST
Nautical Twilight 4:40 AM CST 6:11 PM CST
Astronomical Twilight 4:15 AM CST 6:36 PM CST
Moon 7:16 PM CST (10/2) 7:16 AM CST (10/2)
Length of Visible Light 12h 43m
Length of Day
12h 01m
Waning Gibbous, 94% of the Moon is Illuminated
Oct 2
Waning Gibbous
Oct 8
Last Quarter
Oct 15
New
Oct 21
First Quarter
Oct 29
Full

Hourly Weather History & Observations

Time (CST) Temp. Heat Index Dew Point Humidity Pressure Visibility Wind Dir Wind Speed Gust Speed Precip Events Conditions
12:00 AM 67 °F - 64 °F 88% 29.83 in 12 mi East 3.5 mph - -   Mostly Cloudy
12:00 AM 66.2 °F - 64.4 °F 94% 30.00 in - East 3.5 mph - N/A   Clear
1:00 AM 66.2 °F - 62.6 °F 88% 29.98 in 6.2 mi South 3.5 mph - N/A Fog Mostly Cloudy
2:00 AM 66.2 °F - 62.6 °F 88% 29.98 in 6.2 mi Calm Calm - N/A Fog Mostly Cloudy
3:00 AM 67 °F - - % 29.83 in 9 mi ENE 3.5 mph - -   Scattered Clouds
3:00 AM 68.0 °F - 62.6 °F 83% 29.97 in 6.2 mi ENE 3.5 mph - N/A   Scattered Clouds
4:00 AM 66.2 °F - 62.6 °F 88% 29.98 in - NNE 5.8 mph - N/A   Clear
5:00 AM 66.2 °F - 60.8 °F 83% 29.99 in - ENE 4.6 mph - N/A   Clear
6:00 AM 66 °F - 61 °F 79% 29.87 in 12 mi ENE 8.1 mph - -   Clear
6:00 AM 66.2 °F - 60.8 °F 83% 30.00 in - ENE 8.1 mph - N/A   Clear
7:00 AM 71.6 °F - 62.6 °F 73% 30.01 in - NE 9.2 mph - N/A   Clear
8:00 AM 77.0 °F - 62.6 °F 61% 30.03 in - East 4.6 mph - N/A   Clear
9:00 AM 80 °F - 62 °F 44% 29.85 in 12 mi East 9.2 mph - -   Scattered Clouds
9:00 AM 80.6 °F 81.8 °F 62.6 °F 54% 30.04 in 6.2 mi East 9.2 mph - N/A   Scattered Clouds
10:00 AM 82.4 °F 83.9 °F 64.4 °F 54% 30.02 in 6.2 mi East 11.5 mph - N/A   Scattered Clouds
11:00 AM 82.4 °F 83.4 °F 62.6 °F 51% 30.01 in 6.2 mi ENE 9.2 mph - N/A   Scattered Clouds
12:00 PM 83 °F - 62 °F 38% 29.82 in 12 mi ESE 8.1 mph - -   Partly Cloudy
12:00 PM 84.2 °F 84.4 °F 60.8 °F 45% 29.98 in 6.2 mi ESE 8.1 mph - N/A   Scattered Clouds
12:38 PM 80.6 °F 83.9 °F 69.8 °F 70% 29.97 in 6.2 mi SW 9.2 mph - N/A   Scattered Clouds
1:00 PM 82.4 °F 86.3 °F 69.8 °F 66% 29.95 in 6.2 mi WSW 13.8 mph - N/A   Scattered Clouds
2:00 PM 78.8 °F - 69.8 °F 74% 29.95 in 6.2 mi WSW 12.7 mph - N/A   Scattered Clouds
3:00 PM 76 °F - 68 °F 70% 29.80 in 9 mi NW 6.9 mph - -   Overcast
3:00 PM 75.2 °F - 68.0 °F 78% 29.96 in 6.2 mi NW 6.9 mph - N/A Rain , Thunderstorm Rain Showers
3:20 PM 71.6 °F - 69.8 °F 94% 29.97 in 6.2 mi West 8.1 mph - N/A Rain , Thunderstorm Rain
4:00 PM 71.6 °F - 69.8 °F 94% 29.98 in 2.2 mi SW 6.9 mph - N/A   Mostly Cloudy
5:00 PM 71.6 °F - 69.8 °F 94% 29.97 in 3.1 mi West 6.9 mph - N/A   Mostly Cloudy
6:00 PM 71 °F - 69 °F 91% 29.88 in 5 mi WSW 4.6 mph - - Fog Light Fog
6:00 PM 71.6 °F - 69.8 °F 94% 30.00 in 5.0 mi WSW 4.6 mph - N/A Fog Fog
7:00 PM 71.6 °F - 69.8 °F 94% 30.01 in 6.2 mi Calm Calm - N/A   Mostly Cloudy
8:00 PM 69.8 °F - 68.0 °F 94% 30.03 in 3.1 mi WSW 2.3 mph - N/A   Mostly Cloudy
9:00 PM 69.8 °F - 66.2 °F 88% - 6.2 mi Calm Calm - N/A   Mostly Cloudy
10:00 PM 69.8 °F - 66.2 °F 88% 30.04 in 6.2 mi Calm Calm - N/A   Mostly Cloudy
11:00 PM 68.0 °F - 64.4 °F 88% 30.02 in 6.2 mi East 2.3 mph - N/A   Mostly Cloudy